This is the latest recevied weather packets stored in our database for station/object W8UFO-13. If no packets are shown the sender has not sent any weather packets the latest 10 day(s).
| Time | Temp. | Humidity | Pressure | Rain* | Wind** | Luminosity | Snow |
|---|---|---|---|---|---|---|---|
| 1778008457 | 24.44° C | 47% | 1014.6 hPa | 0 mm | - | - | - |
| 1778008157 | 24.44° C | 49% | 1014.5 hPa | 0 mm | - | - | - |
| 1778007857 | 24.44° C | 50% | 1014.6 hPa | 0 mm | - | - | - |
| 1778007557 | 24.44° C | 53% | 1014.7 hPa | 0 mm | - | - | - |
| 1778007257 | 23.89° C | 52% | 1014.8 hPa | 0 mm | - | - | - |
| 1778006957 | 23.89° C | 52% | 1014.8 hPa | 0 mm | - | - | - |
| 1778006657 | 23.89° C | 51% | 1014.9 hPa | 0 mm | - | - | - |
| 1778006357 | 23.89° C | 51% | 1015.1 hPa | 0 mm | - | - | - |
| 1778006057 | 23.89° C | 53% | 1015.2 hPa | 0 mm | - | - | - |
| 1778005757 | 23.89° C | 51% | 1015.4 hPa | 0 mm | - | - | - |
| 1778005457 | 24.44° C | 52% | 1015.3 hPa | 0 mm | - | - | - |
| 1778005157 | 23.89° C | 54% | 1015.3 hPa | 0 mm | - | - | - |
| 1778004857 | 24.44° C | 51% | 1015.5 hPa | 0 mm | - | - | - |
| 1778004557 | 23.89° C | 53% | 1015.7 hPa | 0 mm | - | - | - |
| 1778004257 | 23.89° C | 51% | 1015.8 hPa | 0 mm | - | - | - |
| 1778003957 | 23.89° C | 52% | 1015.7 hPa | 0 mm | - | - | - |
| 1778003657 | 23.89° C | 52% | 1015.7 hPa | 0 mm | - | - | - |
| 1778003357 | 23.89° C | 50% | 1015.9 hPa | 0 mm | - | - | - |
| 1778003057 | 23.89° C | 52% | 1015.9 hPa | 0 mm | - | - | - |
| 1778002757 | 23.89° C | 54% | 1016 hPa | 0 mm | - | - | - |
| 1778002457 | 23.33° C | 52% | 1016 hPa | 0 mm | - | - | - |
| 1778002157 | 23.33° C | 53% | 1016.1 hPa | 0 mm | - | - | - |
| 1778001857 | 23.33° C | 53% | 1016.1 hPa | 0 mm | - | - | - |
| 1778001557 | 23.33° C | 54% | 1016.1 hPa | 0 mm | - | - | - |
| 1778001257 | 23.33° C | 54% | 1016.2 hPa | 0 mm | - | - | - |
* Rain latest hour (hover to see other rain measurements)
** Current wind speed in m/s (hover to see current wind gust speed)